Lorentz, WV

10:06 PM EDT on July 27, 2016 (GMT -0400)
Buckhannon

Weather History for KW22 - April, 2013

Change the Weather History Date:

Sunday, April 7, 2013

  Actual Average (KEKN) Record (KEKN)
Temperature  
Mean Temperature 60 °F 47 °F  
Max Temperature 69 °F 60 °F 85 °F (2010)
Min Temperature 51 °F 34 °F 13 °F (1950)
Degree Days  
Heating Degree Days 5 18  
Month to date heating degree days 133  
Since 1 July heating degree days 5234  
Cooling Degree Days 0 0  
Month to date cooling degree days 0  
Year to date cooling degree days 0  
Growing Degree Days 10 (Base 50)    
Moisture  
Dew Point 35 °F    
Average Humidity 37    
Maximum Humidity 48    
Minimum Humidity 30    
Precipitation  
Precipitation 0.00 in 0.13 in 1.14 in (2003)
Month to date precipitation 0.89  
Year to date precipitation 11.18  
Snow  
Snow 0.00 in - - ()
Month to date snowfall  
Since 1 September snowfall  
Snow Depth -    
Sea Level Pressure  
Sea Level Pressure 30.02 in    
Wind  
Wind Speed 11 mph (SSW)    
Max Wind Speed 28 mph    
Max Gust Speed 38 mph    
Visibility 10 miles    
Events      
T = Trace of Precipitation, MM = Missing Value Source: NWS Daily Summary

Daily Weather History Graph

Daily Weather History Graph

Search for Another Location

Airport or City:

Trip Planner

Search our weather history database for the weather conditions in past years. The results will help you decide how hot, cold, wet, or windy it might be!

Date:

Astronomy

Apr. 07, 2013 Rise Set
Actual Time 6:56 AM EDT 7:50 PM EDT
Civil Twilight 6:28 AM EDT 8:18 PM EDT
Nautical Twilight 5:56 AM EDT 8:50 PM EDT
Astronomical Twilight 5:23 AM EDT 9:23 PM EDT
Moon 5:11 AM EDT (4/7) 5:22 PM EDT (4/7)
Length of Visible Light 13h 49m
Length of Day
12h 54m
Waning Crescent, 8% of the Moon is Illuminated
Apr 7
Waning Crescent
Apr 10
New
Apr 18
First Quarter
Apr 25
Full
May 2
Last Quarter

Hourly Weather History & Observations

Time (EDT) Temp. Dew Point Humidity Pressure Visibility Wind Dir Wind Speed Gust Speed Precip Events Conditions
12:15 AM 55.4 °F 28.4 °F 36% 30.06 in 10.0 mi South 12.7 mph 18.4 mph N/A   Clear
12:35 AM 55.4 °F 28.4 °F 36% 30.07 in 10.0 mi South 8.1 mph 17.3 mph N/A   Clear
12:55 AM 55.4 °F 28.4 °F 36% 30.07 in 10.0 mi South 5.8 mph - N/A   Clear
1:15 AM 53.6 °F 30.2 °F 41% 30.06 in 10.0 mi South 9.2 mph 16.1 mph N/A   Clear
1:35 AM 53.6 °F 28.4 °F 38% 30.07 in 10.0 mi South 9.2 mph - N/A   Clear
1:55 AM 53.6 °F 28.4 °F 38% 30.07 in 10.0 mi South 11.5 mph - N/A   Clear
2:15 AM 53.6 °F 28.4 °F 38% 30.07 in 10.0 mi South 11.5 mph - N/A   Clear
2:35 AM 53.6 °F 28.4 °F 38% 30.06 in 10.0 mi South 13.8 mph 18.4 mph N/A   Clear
2:55 AM 53.6 °F 28.4 °F 38% 30.06 in 10.0 mi South 12.7 mph 19.6 mph N/A   Clear
3:15 AM 53.6 °F 28.4 °F 38% 30.06 in 10.0 mi South 8.1 mph - N/A   Clear
3:35 AM 53.6 °F 28.4 °F 38% 30.05 in 10.0 mi South 8.1 mph 16.1 mph N/A   Clear
3:55 AM 51.8 °F 28.4 °F 41% 30.05 in 10.0 mi South 9.2 mph - N/A   Clear
4:15 AM 51.8 °F 28.4 °F 41% 30.04 in 10.0 mi South 6.9 mph - N/A   Clear
4:35 AM 51.8 °F 28.4 °F 41% 30.04 in 10.0 mi South 4.6 mph - N/A   Clear
4:55 AM 53.6 °F 28.4 °F 38% 30.03 in 10.0 mi South 9.2 mph 16.1 mph N/A   Clear
5:15 AM 53.6 °F 28.4 °F 38% 30.03 in 10.0 mi South 12.7 mph - N/A   Clear
5:35 AM 51.8 °F 28.4 °F 41% 30.03 in 10.0 mi South 10.4 mph - N/A   Clear
5:55 AM 53.6 °F 30.2 °F 41% 30.03 in 10.0 mi South 6.9 mph - N/A   Clear
6:15 AM 53.6 °F 30.2 °F 41% 30.03 in 10.0 mi South 6.9 mph - N/A   Clear
6:35 AM 53.6 °F 30.2 °F 41% 30.03 in 10.0 mi South 8.1 mph - N/A   Clear
6:55 AM 53.6 °F 30.2 °F 41% 30.03 in 10.0 mi South 5.8 mph - N/A   Clear
7:15 AM 53.6 °F 30.2 °F 41% 30.03 in 10.0 mi South 9.2 mph - N/A   Clear
7:35 AM 53.6 °F 32.0 °F 44% 30.04 in 10.0 mi South 6.9 mph - N/A   Clear
7:55 AM 55.4 °F 32.0 °F 41% 30.04 in 10.0 mi SSW 6.9 mph - N/A   Clear
8:15 AM 55.4 °F 32.0 °F 41% 30.04 in 10.0 mi SSW 10.4 mph 16.1 mph N/A   Clear
8:35 AM 57.2 °F 32.0 °F 38% 30.04 in 10.0 mi SSW 16.1 mph 27.6 mph N/A   Clear
8:55 AM 59.0 °F 32.0 °F 36% 30.03 in 10.0 mi SSW 27.6 mph 32.2 mph N/A   Clear
9:15 AM 60.8 °F 32.0 °F 34% 30.03 in 10.0 mi SSW 18.4 mph 26.5 mph N/A   Clear
9:35 AM 62.6 °F 33.8 °F 34% 30.04 in 10.0 mi SSW 13.8 mph 21.9 mph N/A   Clear
9:55 AM 62.6 °F 33.8 °F 34% 30.04 in 10.0 mi SSW 19.6 mph 28.8 mph N/A   Clear
10:15 AM 62.6 °F 33.8 °F 34% 30.04 in 10.0 mi SW 15.0 mph 27.6 mph N/A   Clear
10:35 AM 62.6 °F 33.8 °F 34% 30.03 in 10.0 mi SSW 17.3 mph 29.9 mph N/A   Clear
10:55 AM 64.4 °F 33.8 °F 32% 30.03 in 10.0 mi SW 19.6 mph 38.0 mph N/A   Clear
11:15 AM 64.4 °F 33.8 °F 32% 30.03 in 10.0 mi SW 25.3 mph 32.2 mph N/A   Clear
11:35 AM 64.4 °F 35.6 °F 34% 30.03 in 10.0 mi SW 26.5 mph 36.8 mph N/A   Clear
11:55 AM 66.2 °F 35.6 °F 32% 30.02 in 10.0 mi SW 24.2 mph 34.5 mph N/A   Clear
12:15 PM 66.2 °F 35.6 °F 32% 30.02 in 10.0 mi SSW 18.4 mph 28.8 mph N/A   Clear
12:35 PM 66.2 °F 35.6 °F 32% 30.01 in 10.0 mi SSW 23.0 mph 29.9 mph N/A   Clear
12:55 PM 68.0 °F 35.6 °F 30% 30.01 in 10.0 mi SW 17.3 mph 29.9 mph N/A   Partly Cloudy
1:15 PM 68.0 °F 35.6 °F 30% 30.00 in 10.0 mi WSW 16.1 mph 25.3 mph N/A   Partly Cloudy
1:35 PM 69.8 °F 37.4 °F 31% 30.00 in 10.0 mi SW 18.4 mph 29.9 mph N/A   Scattered Clouds
1:55 PM 69.8 °F 37.4 °F 31% 29.99 in 10.0 mi WSW 18.4 mph 27.6 mph N/A   Scattered Clouds
2:15 PM 69.8 °F 37.4 °F 31% 29.98 in 10.0 mi SSW 21.9 mph 29.9 mph N/A   Mostly Cloudy
2:35 PM 69.8 °F 37.4 °F 31% 29.98 in 10.0 mi WSW 11.5 mph 26.5 mph N/A   Mostly Cloudy
2:55 PM 69.8 °F 37.4 °F 31% 29.98 in 10.0 mi West 15.0 mph 24.2 mph N/A   Mostly Cloudy
3:15 PM 69.8 °F 37.4 °F 31% 29.98 in 10.0 mi SW 11.5 mph 26.5 mph N/A   Mostly Cloudy
3:35 PM 69.8 °F 37.4 °F 31% 29.97 in 10.0 mi SW 10.4 mph 29.9 mph N/A   Mostly Cloudy
3:55 PM 69.8 °F 39.2 °F 33% 29.97 in 10.0 mi WSW 17.3 mph 24.2 mph N/A   Mostly Cloudy
4:15 PM 69.8 °F 37.4 °F 31% 29.98 in 10.0 mi WSW 16.1 mph 26.5 mph N/A   Mostly Cloudy
4:35 PM 68.0 °F 37.4 °F 33% 29.98 in 10.0 mi West 13.8 mph 23.0 mph N/A   Mostly Cloudy
4:55 PM 66.2 °F 39.2 °F 37% 29.98 in 10.0 mi WSW 5.8 mph 20.7 mph N/A   Mostly Cloudy
5:15 PM 68.0 °F 39.2 °F 35% 29.98 in 10.0 mi WSW 8.1 mph 19.6 mph N/A   Mostly Cloudy
5:35 PM 68.0 °F 39.2 °F 35% 29.99 in 10.0 mi SW 9.2 mph - N/A   Scattered Clouds
5:55 PM 68.0 °F 39.2 °F 35% 29.99 in 10.0 mi West 11.5 mph 21.9 mph N/A   Scattered Clouds
6:15 PM 68.0 °F 39.2 °F 35% 29.99 in 10.0 mi WSW 5.8 mph 16.1 mph N/A   Scattered Clouds
6:35 PM 68.0 °F 39.2 °F 35% 30.00 in 10.0 mi WSW 8.1 mph 20.7 mph N/A   Scattered Clouds
6:55 PM 66.2 °F 39.2 °F 37% 30.00 in 10.0 mi WSW 8.1 mph - N/A   Scattered Clouds
7:15 PM 66.2 °F 39.2 °F 37% 30.00 in 10.0 mi SW 5.8 mph - N/A   Scattered Clouds
7:35 PM 66.2 °F 39.2 °F 37% 30.00 in 10.0 mi SW 8.1 mph - N/A   Partly Cloudy
7:55 PM 66.2 °F 39.2 °F 37% 30.01 in 10.0 mi WSW 5.8 mph - N/A   Partly Cloudy
8:15 PM 64.4 °F 39.2 °F 40% 30.01 in 10.0 mi WSW 3.5 mph - N/A   Partly Cloudy
8:35 PM 64.4 °F 39.2 °F 40% 30.01 in 10.0 mi Calm Calm - N/A   Clear
8:55 PM 64.4 °F 39.2 °F 40% 30.02 in 10.0 mi Calm Calm - N/A   Clear
9:15 PM 64.4 °F 39.2 °F 40% 30.03 in 10.0 mi Calm Calm - N/A   Mostly Cloudy
9:35 PM 64.4 °F 39.2 °F 40% 30.03 in 10.0 mi Calm Calm - N/A   Mostly Cloudy
9:55 PM 64.4 °F 41.0 °F 42% 30.04 in 10.0 mi West 3.5 mph - N/A   Overcast
10:15 PM 64.4 °F 39.2 °F 40% 30.04 in 10.0 mi Calm Calm - N/A   Mostly Cloudy
10:35 PM 64.4 °F 39.2 °F 40% 30.04 in 10.0 mi Calm Calm - N/A   Overcast
10:55 PM 62.6 °F 39.2 °F 42% 30.04 in 10.0 mi Calm Calm - N/A   Overcast
11:15 PM 62.6 °F 39.2 °F 42% 30.04 in 10.0 mi Calm Calm - N/A   Mostly Cloudy
11:35 PM 62.6 °F 39.2 °F 42% 30.04 in 10.0 mi Calm Calm - N/A   Mostly Cloudy
11:55 PM 60.8 °F 41.0 °F 48% 30.04 in 10.0 mi Calm Calm - N/A   Mostly Cloudy